| time (UTC) | temp F | wind direction | speed MPH | gust MPH | rain 1hr in | rain 24hr in | rain mn in | humidity % | barometer mb |
| 20260504081604 | 48 | 216 | 2.0 | 5.0 | 0.00 | 0.00 | 0.00 | 77 | 1006.2 |
| 20260504080113 | 48 | 0 | 2.0 | 6.0 | 0.00 | 0.00 | 0.00 | 77 | 1006.5 |
| 20260504044556 | 50 | 175 | 2.0 | 6.0 | 0.00 | 0.00 | 0.00 | 70 | 1008.7 |
| 20260504043052 | 50 | 150 | 3.0 | 5.0 | 0.00 | 0.00 | 0.00 | 70 | 1008.8 |
| 20260504041554 | 50 | 229 | 1.0 | 7.0 | 0.00 | 0.00 | 0.00 | 70 | 1008.8 |
| 20260504040112 | 50 | 236 | 2.0 | 5.0 | 0.00 | 0.00 | 0.00 | 69 | 1009.1 |
| 20260504034556 | 50 | 0 | 2.0 | 9.0 | 0.00 | 0.00 | 0.00 | 69 | 1009.2 |
| 20260504033049 | 50 | 284 | 3.0 | 6.0 | 0.00 | 0.00 | 0.00 | 69 | 1009.4 |
| 20260504031556 | 50 | 217 | 2.0 | 7.0 | 0.00 | 0.00 | 0.00 | 69 | 1009.4 |
| 20260504030055 | 50 | 165 | 1.0 | 6.0 | 0.00 | 0.00 | 0.00 | 69 | 1009.5 |
| 20260504024556 | 50 | 133 | 3.0 | 11.0 | 0.00 | 0.00 | 0.00 | 70 | 1009.7 |
| 20260504023101 | 50 | 165 | 3.0 | 7.0 | 0.00 | 0.00 | 0.00 | 70 | 1009.7 |
| 20260504021557 | 50 | 179 | 2.0 | 9.0 | 0.00 | 0.00 | 0.00 | 70 | 1009.8 |
| 20260504020052 | 51 | 169 | 2.0 | 8.0 | 0.00 | 0.00 | 0.00 | 71 | 1010.0 |
| 20260504014605 | 51 | 145 | 2.0 | 5.0 | 0.00 | 0.00 | 0.00 | 71 | 1009.8 |
| 20260504013100 | 51 | 171 | 1.0 | 6.0 | 0.00 | 0.00 | 0.00 | 71 | 1009.8 |
| 20260504011555 | 51 | 188 | 1.0 | 5.0 | 0.00 | 0.00 | 0.00 | 70 | 1009.9 |
| 20260504010057 | 51 | 0 | 2.0 | 7.0 | 0.00 | 0.00 | 0.00 | 69 | 1009.9 |
| 20260504004553 | 52 | 0 | 2.0 | 6.0 | 0.00 | 0.00 | 0.00 | 68 | 1010.1 |
| 20260504003101 | 53 | 167 | 1.0 | 5.0 | 0.00 | 0.00 | 0.00 | 67 | 1010.2 |
| 20260504001606 | 53 | 171 | 0.0 | 5.0 | 0.00 | 0.00 | 0.00 | 65 | 1010.3 |
| 20260504000113 | 53 | 206 | 2.0 | 7.0 | 0.00 | 0.00 | 0.00 | 65 | 1010.3 |
| 20260503234555 | 53 | 0 | 2.0 | 8.0 | 0.00 | 0.00 | 0.00 | 64 | 1010.5 |
| 20260503233054 | 53 | 338 | 6.0 | 12.0 | 0.00 | 0.00 | 0.00 | 63 | 1010.7 |
| 20260503231553 | 54 | 306 | 6.0 | 15.0 | 0.00 | 0.00 | 0.00 | 62 | 1010.9 |
| 20260503230057 | 54 | 277 | 8.0 | 19.0 | 0.00 | 0.00 | 0.00 | 60 | 1010.9 |
| 20260503224553 | 55 | 284 | 10.0 | 17.0 | 0.00 | 0.00 | 0.00 | 59 | 1010.9 |
| 20260503223051 | 57 | 277 | 10.0 | 23.0 | 0.00 | 0.00 | 0.00 | 57 | 1010.9 |
| 20260503221557 | 59 | 299 | 11.0 | 21.0 | 0.00 | 0.00 | 0.00 | 53 | 1010.7 |
| 20260503220052 | 60 | 246 | 9.0 | 21.0 | 0.00 | 0.00 | 0.00 | 46 | 1010.4 |
| 20260503214631 | 61 | 179 | 12.0 | 21.0 | 0.00 | 0.00 | 0.00 | 45 | 1010.4 |
| 20260503213054 | 60 | 260 | 9.0 | 17.0 | 0.00 | 0.00 | 0.00 | 45 | 1010.4 |
| 20260503211554 | 61 | 247 | 5.0 | 17.0 | 0.00 | 0.00 | 0.00 | 45 | 1010.5 |
| 20260503210054 | 61 | 227 | 6.0 | 17.0 | 0.00 | 0.00 | 0.00 | 44 | 1010.4 |
| 20260503204552 | 61 | 261 | 11.0 | 24.0 | 0.00 | 0.00 | 0.00 | 44 | 1010.6 |
| 20260503203053 | 62 | 248 | 7.0 | 20.0 | 0.00 | 0.00 | 0.00 | 44 | 1010.6 |
| 20260503201550 | 61 | 192 | 11.0 | 22.0 | 0.00 | 0.00 | 0.00 | 43 | 1010.8 |
| 20260503200100 | 62 | 247 | 7.0 | 19.0 | 0.00 | 0.00 | 0.00 | 42 | 1010.9 |
| 20260503194556 | 62 | 257 | 5.0 | 12.0 | 0.00 | 0.00 | 0.00 | 42 | 1011.1 |
| 20260503193059 | 61 | 119 | 9.0 | 22.0 | 0.00 | 0.00 | 0.00 | 42 | 1011.2 |
| 20260503191603 | 62 | 264 | 6.0 | 18.0 | 0.00 | 0.00 | 0.00 | 43 | 1011.5 |
| 20260503190051 | 61 | 287 | 7.0 | 19.0 | 0.00 | 0.00 | 0.00 | 44 | 1011.7 |
| 20260503184552 | 61 | 269 | 7.0 | 18.0 | 0.00 | 0.00 | 0.00 | 43 | 1011.8 |
| 20260503183112 | 61 | 257 | 6.0 | 19.0 | 0.00 | 0.00 | 0.00 | 44 | 1012.1 |
| 20260503181614 | 59 | 242 | 6.0 | 20.0 | 0.00 | 0.00 | 0.00 | 46 | 1012.1 |
| 20260503180052 | 59 | 292 | 11.0 | 17.0 | 0.00 | 0.00 | 0.00 | 43 | 1012.4 |
| 20260503174553 | 59 | 286 | 10.0 | 23.0 | 0.00 | 0.00 | 0.00 | 45 | 1012.7 |
| 20260503173059 | 59 | 269 | 7.0 | 21.0 | 0.00 | 0.00 | 0.00 | 43 | 1012.9 |
| 20260503171558 | 58 | 290 | 9.0 | 19.0 | 0.00 | 0.00 | 0.00 | 45 | 1013.2 |